Regional Weather Roundup
Issued by NWS

Home | Current Version | Previous Version | Graphics & Text | Print | Product List | Glossary On
Versions: 1 2 3 4 5 6 7 8 9 10 11 12 13 14 15 16 17 18 19 20 21 22 23 24 25 26 27 28 29 30 31 32 33 34 35 36 37 38 39 40 41 42 43 44 45 46 47 48 49 50
000
ASUS45 KBOU 030207
RWRCO

WEATHER ROUNDUP FOR COLORADO
NATIONAL WEATHER SERVICE DENVER/BOULDER CO
800 PM MDT SAT MAY 02 2015

NOTE: "FAIR" INDICATES FEW OR NO CLOUDS BELOW 12000 FEET WITH NO
SIGNIFICANT WEATHER AND/OR OBSTRUCTIONS TO VISIBILITY.

COZ001>005-013-030-031-030300-
...NORTHWEST COLORADO...

CITY           SKY/WX    TMP DP  RH WIND       PRES   REMARKS
CRAIG          CLOUDY    51  42  71 CALM      30.01F
HAYDEN         CLOUDY    52  37  58 E10       30.03F
MEEKER         MOCLDY    54  38  54 VRB5      30.00S
MOUNT WERNER   NOT AVBL
STEAMBOAT SPGS CLOUDY    53  37  55 NE6       30.06F
WALDEN         CLOUDY    45  36  70 S5        30.12F
$$

COZ006>008-011-030300-
...WEST CENTRAL VALLEYS...

CITY           SKY/WX    TMP DP  RH WIND       PRES   REMARKS
GRAND JUNCTION PTCLDY    71  27  19 W6        29.84S
MONTROSE       PTCLDY    71  22  15 SW7       29.93S
EAGLE          MOCLDY    57  39  51 N5        30.08R
RIFLE          PTCLDY    64  33  31 E5        29.96R
DELTA          PTCLDY    74  25  16 E8        29.89R
NUCLA          PTCLDY    70  18  13 W5        29.97S
$$

COZ017>023-064>068-030300-
...SOUTHWEST COLORADO...

CITY           SKY/WX    TMP DP  RH WIND       PRES   REMARKS
DURANGO        CLOUDY    65  26  23 S25G32    30.03R
CORTEZ         CLEAR     69  29  22 SW9       29.97R
PAGOSA SPRINGS CLOUDY    59  28  31 E3        30.10S
TELLURIDE      CLOUDY    52  28  40 NE3       30.18S
WOLF CREEK PAS NOT AVBL
$$

COZ009-010-012-014-032>034-037-058>063-030300-
...CENTRAL COLORADO...

CITY           SKY/WX    TMP DP  RH WIND       PRES   REMARKS
ASPEN          CLOUDY    52  37  56 SE12      30.11R
BUENA VISTA    NOT AVBL
COPPER MTN     MOCLDY    41  25  52 SW10      30.31R
BERTHOUD PASS  MOCLDY    30  23  74 NW14G22   30.33R WCI  20
COTTONWOOD PAS PTCLDY    50  30  46 CALM      30.19S
GUNNISON       PTCLDY    59  27  29 S6        30.08F
KREMMLING      CLOUDY    54  32  43 W8        30.12R
LEADVILLE      MOCLDY    44  29  55 W8        30.21R
MONARCH PASS   PTCLDY    36  30  80 SW10      30.40S
SALIDA         PTCLDY    57  33  39 S7G17     30.14S
SUNLIGHT       MOCLDY    41  32  70 NE6       30.27S
WILKERSON PASS CLOUDY    37  28  70 N8G17     30.30R
$$

COZ069>075-030300-
...SAN LUIS VALLEY/SANGRE DE CRISTO MOUNTAINS...

CITY           SKY/WX    TMP DP  RH WIND       PRES   REMARKS
ALAMOSA        CLOUDY    51  40  65 SW12      30.13R
LA VETA PASS   CLOUDY    41  32  70 MISG      30.23R
SAGUACHE       PTCLDY    50  37  62 SE5       30.15R
$$

COZ035-036-038>040-030300-
...NORTHERN COLORADO FRONT RANGE...

CITY           SKY/WX    TMP DP  RH WIND       PRES   REMARKS
DENVER INTL AP CLOUDY    58  39  49 NE9       29.97F
DMNS CITY PARK   N/A     60  38  44 NE13      29.97R
AURORA         MOCLDY    58  39  50 NE10      29.98F
FRONT RANGE AP MOCLDY    59  43  55 NE6       29.99S
ERIE MUNI ARPT CLOUDY    58  40  49 NE6       29.94R
BOULDER MUN AP CLOUDY    61  37  41 SE5       29.94R
CENTENNIAL     MOCLDY    59  37  44 NE13G21   29.98R
BROOMFIELD     MOCLDY    59  36  41 MISG      29.97R
FORT COLLINS   CLOUDY    63  37  39 SW16      29.93F
LONGMONT       CLOUDY    62  39  43 N9        29.95R
$$

COZ041-046-047-076>085-087-088-030300-
...PIKES PEAK/PALMER DIVIDE AND SOUTHERN FOOTHILLS...

CITY           SKY/WX    TMP DP  RH WIND       PRES   REMARKS
COLO. SPRINGS  MOCLDY    58  40  51 NE9       30.01R
A. F. ACADEMY  MOCLDY    59  37  43 S7        30.02R
ELLICOTT       MOCLDY   N/A N/A N/A E5        29.98F
FALCON         CLOUDY    55  37  50 SE6       30.04F
FORT CARSON    CLOUDY    57  43  58 N6        29.98R
LIMON          MOCLDY    56  41  57 NW7       29.95S
MONUMENT HILL  CLOUDY    54  37  54 S7        30.04R
TRINIDAD       CLOUDY    58  40  51 W10       29.99R
$$

COZ042>045-048>051-090-091-030300-
...NORTHEAST COLORADO...

CITY           SKY/WX    TMP DP  RH WIND       PRES   REMARKS
GREELEY ARPT   CLOUDY    59  39  47 NW9       29.93S
AKRON          LGT RAIN  60  46  59 NW5       29.96R
BURLINGTON     CLOUDY    67  39  35 NW10      29.87R
WRAY           CLOUDY    73  37  26 NW12      29.83R
STERLING       CLOUDY    63  48  59 W9        29.89R
HOLYOKE        NOT AVBL
FORT MORGAN    NOT AVBL
$$

COZ086-089-092>099-030300-
...SOUTHEAST COLORADO...

CITY           SKY/WX    TMP DP  RH WIND       PRES   REMARKS
PUEBLO         CLOUDY    62  45  53 SW9       29.90F
LA JUNTA       CLOUDY    67  41  38 MISG      29.88F
LAMAR          LGT RAIN  60  50  69 NW14      29.92R
SPRINGFIELD      N/A     63  41  44 W8        29.89S
$$



USA.gov is the U.S. government's official web portal to all federal, state and local government web resources and services.